Location: Rometta
(44.2000°N, 10.0500°E)
Time: 15:26:00
(UTC+00:00)

Meteor 1-21 Rocket - Pass Details

Date: 20 January 2021
Orbit: 834 x 906 km, 81.2° (Epoch: 01 March)

Event Time Altitude Azimuth Distance (km) Brightness Sun altitude
Rises 18:10:07 0° 190° (S) 3,371 7.6 -20.6°
Reaches altitude 10° 18:12:31 10° 191° (SSW) 2,439 6.8 -21.1°
Maximum altitude 18:18:02 83° 279° (W) 846 4.2 -22.0°
Drops below altitude 10° 18:23:37 10° 9° (N) 2,463 6.5 -23.0°
Enters shadow 18:25:33 - 10° (N) 3,216 7.1 -23.4°
